Wind_Speed
41 39 45 50 47 43 40 41 39 46 47 38 34 28 31 37 41 45 46 48 44 40 39 37 35 34 45 51 51 52 53 53 52 52 53 54 56 57 59 58 59 58 54 55
48 44 53 51 51 46 44 41 39 38 45 40 35 27 27 32 39 46 47 47 43 41 41 41 39 37 39 43 45 49 50 54 55 56 55 56 56 57 60 62 62 60 59 58
39 43 54 54 52 52 50 49 48 41 42 41 36 21 30 30 36 43 48 49 49 47 46 42 40 41 42 42 43 44 47 50 55 56 54 54 56 58 59 61 63 64 61 59
55 66 60 54 53 63 49 57 50 48 46 38 41 21 28 36 36 39 47 52 55 55 54 51 50 48 48 49 51 50 51 51 51 53 55 58 59 61 64 66 67 66 63 63
55 63 67 66 66 61 56 63 57 49 46 40 39 38 32 33 37 42 44 48 53 58 62 61 58 57 58 57 57 56 55 58 59 60 60 61 61 62 66 69 71 71 67 66
58 62 59 70 77 76 66 62 68 70 67 43 44 46 26 39 43 44 46 45 50 55 60 64 67 66 66 66 67 63 61 62 62 62 61 62 62 63 66 70 75 76 74 70
59 65 73 73 64 72 78 72 71 69 72 67 62 54 42 50 47 47 50 49 54 65 64 71 74 73 74 78 76 74 70 70 68 67 67 65 66 68 70 72 76 78 77 78
78 74 74 77 88 86 75 82 81 91 87 78 81 64 71 69 68 78 85 83 87 90 87 89 87 80 83 90 83 84 79 78 74 74 70 68 68 71 73 74 77 80 80 83
96 90 91 79 83 91 90 85 87 95 94 103 85 90 88 87 85 89 94 99 101 100 102 98 92 89 88 93 98 95 91 87 82 85 82 81 79 80 79 77 78 83 84 84
109 111 98 98 91 89 100 97 96 103 112 113 107 103 88 98 96 98 101 105 116 119 112 105 105 103 95 94 102 106 104 100 97 93 89 87 87 86 82 83 84 84 86 88
117 121 102 103 98 97 110 113 108 121 129 129 127 120 104 120 109 114 118 125 114 107 108 105 112 113 103 103 104 109 109 101 97 97 93 91 91 91 91 90 91 91 93 95
119 122 125 113 112 116 118 117 125 133 132 138 141 135 128 131 136 131 129 108 103 104 105 106 105 99 97 97 100 103 106 101 102 102 98 96 97 98 98 97 97 97 98 100
131 133 135 135 131 130 143 128 132 138 141 147 148 150 143 151 139 129 110 88 94 102 98 101 101 103 103 101 104 104 102 100 104 103 103 103 102 105 104 105 104 105 107 107
138 140 144 143 142 143 145 143 146 149 153 155 159 161 154 135 120 114 115 96 93 97 100 102 103 103 106 113 110 106 103 108 102 104 102 104 108 110 110 111 109 108 109 107
148 156 159 155 151 154 154 158 158 161 166 168 165 140 128 114 106 111 117 113 115 106 97 97 101 98 100 104 105 106 104 102 104 104 104 106 107 108 113 115 115 117 117 117
155 168 160 169 170 168 168 166 170 166 145 143 135 128 111 107 108 100 100 115 120 109 109 104 96 92 83 94 102 104 101 97 100 102 98 104 112 113 112 114 114 118 118 119
176 176 173 160 157 160 163 159 153 130 121 123 123 119 118 114 108 100 98 103 108 110 106 102 100 101 97 84 88 93 96 98 97 101 107 110 113 117 119 119 119 122 123 123
172 160 157 156 147 151 135 132 132 118 112 114 125 125 117 114 102 103 96 94 98 102 107 104 108 104 100 104 95 87 91 98 104 107 110 113 115 116 117 116 115 122 128 127
144 145 145 144 138 134 127 123 120 119 115 107 113 108 111 105 102 100 94 95 92 92 97 102 110 106 108 104 110 105 105 97 98 102 105 103 108 107 105 108 108 109 108 106
140 142 143 136 132 128 124 118 120 119 117 116 120 110 107 104 102 98 96 98 96 92 93 95 103 106 108 110 116 112 115 117 117 117 105 106 102 102 106 108 110 111 110 103
122 127 132 133 133 130 128 118 113 121 121 115 118 113 109 111 104 100 91 92 98 101 99 99 96 99 104 111 114 120 122 126 123 115 114 115 112 110 114 115 117 116 115 111
118 118 120 127 127 124 120 123 122 117 117 114 115 110 108 108 106 98 93 95 93 99 97 103 101 98 101 103 108 112 116 119 119 117 114 114 113 114 116 118 119 120 119 117
117 116 115 117 115 115 118 119 119 118 117 116 113 112 106 105 103 100 95 94 90 98 99 99 97 101 102 102 105 110 110 113 114 113 112 111 113 114 116 116 114 119 119 118
108 110 109 106 103 102 108 110 113 112 112 111 110 109 109 105 103 98 95 93 88 96 102 94 94 95 96 100 104 104 108 113 114 113 112 112 113 113 114 114 115 114 112 113
101 104 108 105 103 104 99 102 103 103 104 104 103 103 104 103 101 99 98 95 89 92 103 99 95 92 91 98 96 100 102 107 111 113 113 114 115 115 115 115 113 114 114 114
98 100 104 101 98 100 96 98 95 93 94 94 94 94 94 95 94 96 96 95 92 91 96 102 103 99 93 97 97 98 100 101 102 103 105 107 112 114 114 114 114 112 112 113
Wind_Direction
284 285 284 284 286 284 282 277 272 272 277 279 279 282 276 286 292 289 289 289 288 289 286 282 277 268 261 258 258 258 260 264 265 264 263 265 267 269 270 273 275 275 277 278
281 288 283 283 284 286 283 282 279 276 277 277 274 279 278 271 278 282 285 286 290 291 291 288 285 280 276 272 264 260 260 261 263 266 268 266 268 270 269 270 273 276 277 274
295 293 285 286 287 284 284 286 279 275 276 284 274 274 270 274 269 280 286 288 291 290 288 288 287 284 281 281 279 276 270 266 264 265 265 266 268 269 269 270 271 272 273 272
289 288 288 294 290 287 289 287 289 281 278 271 280 259 269 263 267 272 279 284 286 287 289 289 288 288 287 285 281 278 275 273 270 268 268 271 269 270 270 271 271 272 272 272
290 286 284 286 286 285 286 282 283 286 280 279 277 265 241 267 276 280 280 285 286 289 292 291 288 289 288 285 283 279 277 275 273 271 272 271 272 270 269 270 271 271 272 274
280 286 293 285 282 283 280 283 277 279 283 291 283 273 248 265 271 268 273 275 279 286 290 291 292 291 291 287 283 279 279 278 277 275 275 274 274 272 271 272 272 272 273 272
289 287 281 286 287 290 280 281 278 282 284 284 286 289 290 284 278 276 274 278 281 285 288 290 290 288 293 290 285 282 281 281 279 277 278 275 275 274 272 271 272 272 273 276
289 294 290 274 275 284 289 279 286 274 281 295 297 299 300 296 295 303 302 295 293 290 287 286 289 280 281 284 286 281 281 282 282 281 277 273 272 273 274 273 273 275 276 278
287 289 291 282 272 276 278 282 280 284 284 291 294 294 302 303 297 297 295 294 294 293 289 282 280 276 277 278 280 282 280 282 278 281 277 275 276 278 275 272 274 274 275 278
286 285 293 291 282 289 278 279 281 285 290 290 297 293 300 299 293 289 290 291 292 290 286 282 275 276 271 270 274 276 275 275 275 277 274 274 274 275 273 272 272 271 274 276
289 286 291 287 287 283 292 293 290 289 292 293 293 289 296 296 293 291 293 294 289 281 276 275 272 272 270 269 267 270 271 269 270 271 272 273 272 272 272 272 273 273 274 275
287 285 289 292 288 289 292 293 290 289 291 290 293 294 296 296 293 291 293 286 279 274 272 268 267 266 268 266 266 266 264 266 265 266 268 270 269 271 271 271 272 273 276 275
285 284 291 291 292 294 292 284 283 286 287 289 291 293 290 293 293 292 285 271 272 268 266 264 264 266 265 265 264 264 261 260 260 262 264 266 269 270 271 271 273 274 275 275
281 283 287 289 288 287 284 284 285 286 284 288 286 290 289 288 286 286 285 279 270 260 258 258 260 259 259 259 262 262 258 259 257 258 260 263 265 267 269 270 273 274 275 277
278 279 281 283 282 281 282 283 284 283 286 284 286 285 283 282 280 278 275 278 279 278 269 258 257 258 262 262 262 260 253 254 258 256 257 259 263 267 268 271 273 273 274 275
275 279 280 281 282 278 278 280 281 286 284 284 285 283 285 280 273 271 272 273 272 272 271 271 271 271 261 259 259 259 260 263 260 257 259 259 260 263 266 268 271 273 275 277
280 281 284 281 281 280 280 284 284 283 281 279 279 280 277 276 277 278 271 268 271 272 272 275 275 277 274 263 259 262 262 260 260 260 260 260 260 262 265 269 272 273 274 275
282 283 281 282 282 281 285 281 281 279 278 276 276 277 278 277 275 272 272 267 266 268 270 271 269 270 268 272 271 259 260 261 260 259 261 263 264 265 266 269 272 272 272 273
280 283 282 279 281 282 281 280 279 279 277 274 273 272 273 274 275 275 274 272 269 265 265 266 266 266 264 267 271 272 271 269 266 265 265 265 263 264 269 268 271 272 274 276
278 280 280 280 280 279 277 276 278 279 278 277 276 275 273 273 272 272 270 270 270 267 263 261 262 263 262 263 265 265 269 272 273 275 273 272 273 276 278 277 278 278 279 281
273 275 277 277 278 279 280 279 278 276 275 275 275 276 277 276 274 271 270 270 267 266 266 265 260 261 263 263 262 261 264 267 271 271 271 274 274 277 277 277 277 278 281 284
274 272 271 273 276 277 278 277 276 275 275 275 274 274 274 273 273 271 269 268 266 266 265 264 265 263 261 260 261 263 263 263 266 268 269 270 271 271 272 274 274 277 278 281
276 274 273 273 273 274 273 274 274 274 273 273 273 274 272 271 270 270 269 266 264 266 263 263 263 263 261 261 262 263 265 264 265 266 267 267 268 270 271 273 274 275 277 279
277 277 277 274 273 272 270 273 273 272 272 273 272 272 272 272 271 270 269 267 264 264 263 261 260 260 262 262 261 260 261 264 266 267 267 268 268 269 270 272 274 275 276 276
278 276 276 278 277 273 274 273 271 272 273 272 272 272 272 273 272 272 271 269 266 266 270 269 265 261 259 261 261 263 261 260 261 263 265 266 267 268 269 270 271 273 275 276
276 275 274 273 275 277 277 277 276 274 273 273 272 271 270 269 268 268 267 266 265 263 261 264 266 265 260 259 259 258 258 258 259 260 262 263 265 266 268 269 270 271 273 274
Height
10748 10751 10741 10735 10739 10741 10744 10743 10744 10737 10733 10741 10741 10745 10741 10732 10725 10723 10724 10721 10722 10724 10723 10723 10723 10721 10719 10719 10720 10718 10716 10715 10716 10715 10715 10714 10711 10710 10706 10705 10704 10702 10701 10699
10739 10743 10727 10727 10726 10731 10731 10732 10731 10732 10725 10731 10734 10738 10735 10730 10721 10712 10715 10712 10712 10712 10714 10713 10713 10712 10711 10709 10709 10709 10708 10705 10704 10703 10703 10700 10699 10696 10693 10691 10689 10687 10687 10686
10728 10728 10718 10719 10718 10714 10716 10717 10718 10721 10716 10720 10724 10734 10724 10720 10713 10705 10698 10701 10703 10703 10703 10703 10703 10702 10702 10700 10699 10698 10698 10696 10694 10691 10690 10688 10686 10683 10680 10677 10673 10672 10674 10672
10718 10706 10709 10709 10710 10695 10710 10693 10702 10705 10706 10711 10708 10726 10720 10707 10706 10701 10697 10694 10691 10688 10690 10692 10690 10691 10690 10689 10687 10686 10685 10685 10682 10680 10678 10677 10674 10670 10667 10661 10658 10657 10659 10659
10702 10698 10695 10694 10688 10685 10692 10683 10682 10685 10691 10699 10702 10700 10712 10705 10701 10697 10692 10688 10680 10677 10674 10673 10675 10676 10675 10674 10674 10673 10671 10670 10669 10667 10666 10664 10661 10657 10652 10647 10644 10641 10643 10644
10682 10680 10683 10676 10672 10668 10670 10666 10661 10666 10672 10688 10681 10680 10711 10694 10693 10688 10683 10678 10673 10665 10661 10656 10653 10654 10657 10655 10653 10655 10656 10653 10653 10651 10650 10647 10645 10642 10638 10633 10627 10624 10624 10625
10667 10669 10665 10658 10655 10652 10644 10646 10642 10647 10649 10664 10663 10672 10689 10679 10674 10675 10676 10672 10665 10663 10658 10648 10641 10635 10634 10629 10631 10631 10633 10632 10633 10632 10631 10628 10626 10624 10620 10616 10610 10606 10603 10601
10641 10653 10643 10640 10632 10632 10634 10622 10620 10601 10624 10635 10635 10652 10663 10662 10659 10654 10651 10648 10645 10645 10641 10637 10631 10625 10617 10611 10610 10608 10610 10612 10613 10611 10609 10608 10606 10604 10600 10598 10593 10586 10583 10579
10605 10625 10620 10619 10610 10607 10614 10607 10596 10578 10589 10588 10616 10625 10633 10637 10635 10632 10627 10620 10620 10619 10614 10611 10607 10605 10603 10593 10584 10582 10584 10588 10588 10588 10588 10586 10585 10582 10579 10577 10575 10568 10562 10556
10575 10566 10602 10592 10586 10589 10575 10577 10576 10563 10544 10551 10575 10587 10605 10617 10611 10604 10598 10595 10594 10590 10581 10581 10572 10573 10581 10576 10567 10563 10561 10564 10566 10566 10565 10566 10562 10559 10557 10555 10550 10547 10541 10535
10540 10531 10577 10563 10571 10557 10552 10546 10545 10533 10525 10516 10517 10532 10596 10584 10575 10572 10568 10563 10554 10551 10547 10544 10541 10538 10544 10546 10546 10537 10534 10543 10543 10538 10539 10540 10537 10534 10534 10529 10524 10523 10519 10515
10516 10498 10498 10533 10540 10534 10524 10522 10515 10498 10503 10488 10475 10477 10540 10537 10539 10536 10535 10529 10515 10507 10509 10505 10497 10501 10509 10509 10511 10512 10510 10519 10518 10517 10517 10513 10509 10505 10504 10500 10497 10495 10493 10489
10490 10469 10467 10472 10506 10515 10493 10499 10486 10475 10465 10456 10453 10466 10503 10487 10475 10480 10487 10487 10476 10469 10467 10464 10465 10469 10475 10475 10473 10476 10483 10490 10487 10489 10490 10489 10485 10477 10472 10472 10469 10465 10464 10462
10457 10444 10451 10448 10459 10470 10461 10462 10456 10443 10426 10440 10427 10432 10449 10465 10445 10445 10430 10433 10427 10430 10432 10430 10431 10434 10436 10439 10439 10446 10452 10453 10458 10460 10463 10460 10455 10448 10446 10443 10437 10434 10433 10434
10436 10417 10424 10426 10432 10426 10416 10421 10425 10408 10410 10395 10405 10381 10390 10412 10425 10416 10398 10398 10386 10389 10396 10395 10396 10400 10405 10412 10409 10412 10419 10422 10425 10430 10433 10428 10422 10420 10416 10412 10406 10403 10403 10403
10408 10390 10407 10394 10385 10381 10373 10383 10381 10389 10374 10354 10350 10337 10361 10359 10357 10372 10378 10363 10349 10354 10353 10360 10366 10370 10383 10381 10381 10383 10391 10396 10395 10397 10398 10393 10391 10388 10386 10381 10376 10373 10374 10371
10355 10344 10344 10342 10352 10330 10317 10348 10345 10344 10340 10327 10312 10317 10307 10308 10318 10331 10336 10327 10328 10333 10334 10342 10340 10342 10343 10349 10352 10360 10364 10361 10362 10362 10362 10360 10360 10359 10356 10355 10353 10347 10343 10341
10314 10304 10285 10284 10300 10276 10306 10297 10292 10300 10306 10301 10275 10267 10275 10276 10295 10281 10289 10297 10303 10308 10310 10314 10314 10312 10311 10313 10322 10330 10332 10332 10331 10331 10331 10331 10330 10330 10330 10330 10325 10319 10313 10311
10268 10256 10249 10239 10249 10253 10264 10255 10254 10250 10248 10249 10244 10243 10239 10249 10258 10255 10262 10264 10271 10275 10279 10282 10282 10282 10283 10286 10285 10292 10295 10299 10301 10300 10297 10300 10301 10302 10304 10301 10294 10289 10282 10282
10240 10222 10207 10210 10203 10208 10213 10219 10217 10218 10207 10206 10202 10207 10210 10217 10222 10226 10225 10227 10230 10236 10243 10252 10253 10255 10254 10257 10260 10262 10262 10262 10264 10265 10267 10267 10269 10272 10270 10267 10262 10256 10250 10252
10216 10199 10174 10162 10157 10164 10162 10181 10194 10172 10162 10173 10163 10172 10177 10176 10183 10194 10198 10196 10195 10198 10202 10206 10221 10224 10224 10223 10227 10229 10230 10230 10233 10236 10238 10235 10237 10238 10238 10234 10229 10225 10221 10222
10174 10173 10164 10140 10132 10136 10142 10130 10130 10139 10132 10133 10129 10132 10137 10140 10143 10156 10162 10163 10168 10164 10169 10170 10176 10185 10187 10190 10193 10194 10195 10199 10201 10203 10205 10208 10210 10210 10208 10204 10200 10197 10197 10195
10120 10120 10120 10113 10114 10112 10100 10093 10092 10093 10095 10092 10097 10096 10103 10109 10112 10116 10120 10125 10131 10129 10133 10136 10144 10147 10149 10155 10161 10163 10163 10164 10166 10169 10173 10178 10178 10175 10171 10170 10169 10167 10169 10167
10091 10078 10071 10070 10080 10080 10067 10064 10054 10057 10057 10059 10063 10067 10064 10070 10075 10082 10088 10092 10095 10094 10097 10104 10107 10112 10116 10115 10119 10128 10129 10125 10126 10131 10135 10137 10138 10139 10139 10138 10137 10136 10138 10136
10061 10049 10035 10034 10034 10024 10037 10029 10025 10026 10024 10026 10032 10033 10034 10036 10045 10047 10051 10055 10062 10060 10054 10061 10069 10077 10083 10079 10085 10085 10091 10092 10094 10096 10099 10099 10100 10102 10104 10107 10109 10105 10103 10103
10020 10013 9998 10003 10009 9998 10006 9997 9993 9999 9999 9999 10001 10002 10002 10000 10007 10008 10014 10017 10021 10025 10025 10025 10026 10032 10043 10044 10051 10053 10053 10053 10057 10061 10064 10066 10065 10069 10071 10072 10072 10075 10073 10070